Regional Weather Roundup
Issued by NWS State College, PA

Home | Current Version | Previous Version | Text Only | Print | Product List | Glossary On
Versions: 1 2 3 4 5 6 7 8 9 10 11 12 13 14 15 16 17 18 19 20 21 22 23 24 25 26 27 28 29 30 31 32 33 34 35 36 37 38 39 40 41 42 43 44 45 46 47 48 49 50
000
ASUS41 KCTP 260910
RWRCTP

REGIONAL WEATHER ROUNDUP
NATIONAL WEATHER SERVICE STATE COLLEGE PA
400 AM EST WED NOV 26 2014

Note: "fair" indicates few or no clouds below 12,000 feet with no
significant weather and/or obstructions to visibility.

* = STATION THAT DOES NOT REPORT PRECIPITATION /E.G. RAIN...SNOW...ETC/
    THUNDER OR FOG.

PAZ002>004-007>009-013>016-020>023-029>032-261000-
WESTERN PENNSYLVANIA

CITY           SKY/WX    TMP DP  RH WIND       PRES   REMARKS
ERIE           CLOUDY    34  25  69 S5        30.19R
MEADVILLE      CLOUDY    31  23  72 NE5       30.13F
FRANKLIN*      CLOUDY    28  23  80 NE5       30.14F
NEW CASTLE       N/A     28  26  92 CALM      30.17F
BEAVER COUNTY  NOT AVBL
BUTLER*        CLOUDY    28  25  86 NE3       30.14F
PITTSBURGH INT CLOUDY    31  25  78 N6        30.12F
PITTSBURGH     CLOUDY    32  23  69 NE3       30.10F
INDIANA*       PTCLDY    32  27  80 VRB5      30.15F
LATROBE        CLOUDY    32  28  86 N5        30.13F
WASHINGTON CO* CLOUDY    28  25  86 N5        30.10F
$$

PAZ004>006-010>012-017>019-024>028-033>037-041-042-045-046-049>053-261000-
CENTRAL PENNSYLVANIA

CITY           SKY/WX    TMP DP  RH WIND       PRES   REMARKS
BRADFORD       CLOUDY    30  23  75 CALM      30.14R
DUBOIS         CLOUDY    28  24  85 NE5       30.11F
CLEARFIELD     CLOUDY    29  25  85 N6        30.14F
JOHNSTOWN      CLOUDY    30  23  75 NE8       30.06F
ALTOONA        CLOUDY    33  27  78 NE3       30.12F
STATE COLLEGE  CLOUDY    33  26  75 N3        30.16S
WILLIAMSPORT   CLOUDY    33  28  81 NW3       30.21R
SELINSGROVE    CLOUDY    36  31  82 CALM      30.19S
FT INDIANTOWN  CLOUDY    42  29  58 E6        30.16S
CAPITAL CITY   CLOUDY    44  29  55 CALM      30.15F
HARRISBURG     CLOUDY    41  31  67 NW3       30.15S
YORK           CLOUDY    38  34  85 CALM      30.14F
$$

PAZ038>040-043-044-047-048-054-055-060>062-067>071-261000-
EASTERN PENNSYLVANIA

CITY           SKY/WX    TMP DP  RH WIND       PRES   REMARKS
SCRANTON       CLOUDY    39  28  64 N5        30.18R
MOUNT POCONO   CLOUDY    36  25  64 N5        30.13F
ALLENTOWN      CLOUDY    38  32  79 NW3       30.18F
QUAKERTOWN*    CLOUDY    37  34  87 CALM      30.16F
READING        CLOUDY    41  32  70 CALM      30.16F
LANCASTER      CLOUDY    40  32  73 CALM      30.15R
COATESVILLE    CLOUDY    41  32  70 N6        30.13F
POTTSTOWN      CLOUDY    40  33  76 CALM      30.15F
BLUE BELL      CLOUDY    46  32  57 N5        30.11F
DOYLESTOWN     CLOUDY    41  33  73 NE6       30.14F
WILLOW GROVE   NOT AVBL
NORTH PHILA    LGT RAIN  50  29  44 N14       30.10F
PHILADELPHIA   CLOUDY    50  31  48 N16       30.09F
$$



USA.gov is the U.S. government's official web portal to all federal, state and local government web resources and services.